DMSP 5D-2 F13 DEB, 42297

Orbit data source: Space-Track

DMSP 5D-2 F13 DEB, 42297 is space debris in SSO originally from a launch on Fri, 24 Mar 1995 UTC launched from the Air Force Western Test Range (AFWTR). Debris objects in space refer to the collection of defunct objects orbiting the Earth. Examples of debris include non-operational satellites, rocket bodies, and fragments generated from explosions, collisions, or faulty payload assembly.

Loading next visibility...
Identifier
42297, 1995-015HP
Orbit
SSO
Country
Flag of USUS
Related business
Manufacturer
Unknown
Mission
Spacecraft
Bus & Motor
Unknown
Mass
Unknown
Launch date (UTC)
1995-03-24 (31 years ago)
Launch vehicle
Unknown
Launch site
Air Force Western Test Range (AFWTR)
Object type
Payload
Rocket body
Debris
Shape & HBR
Unknown shape, 0.1 m
Radar Cross Section
Small (<0.1 m²)

Expand to show TLE details & history
Last TLE update: 1 day ago

TLE from 1 day ago
0 DMSP 5D-2 F13 DEB
1 42297U 95015HP  26070.84349453  .00009982  00000-0  28907-2 0  9995
2 42297  98.8603  73.5377 0026090 230.0069 129.8830 14.44459069541781
Epoch: 2026-03-11T20:14Z
TLE epoch observation values (Epoch: 2026-03-11T20:14:37.927Z)
Latitude
-0.00001°
Longitude
-39.62224°
Altitude
758.692 km
Speed
7.469 km/s
True Right ascension
04h 54m 09s
True Declination
0° 00' 00"
Sunlit
Object was in daylight at epoch
Visualization orbit readout
Latitude
Unknown
Longitude
Unknown
Altitude
Unknown
Speed
Unknown
Apparent Right ascension
Unknown
Apparent Declination
Unknown
Sunlit
N/A
Visualization observer readout
Local Sidereal Time
01:18:36
Azimuth
Unknown
Elevation
Unknown
Doppler factor
Unknown
Orbital elements
Apogee altitude
759.511 km
Perigee altitude
722.363 km
Semi-major axis
7,119.074 km
Eccentricity
0.00261
Inclination
98.8603°
RAAN
73.5377°
Arg. of periapsis
230.0069°
True anomaly
130.11194°
Mean anomaly
129.883°
Eccentric anomaly
129.99752°
Mean motion
3.61333 °/min
Orbital period
99.63 mins
BSTAR
0.0028907
Loading maneuver chart data...
Computing Atmospheric mass density...
Loading historical data...
Loading historical data...
Loading historical data...
Loading historical data...
Loading historical data...
Loading historical data...
Loading historical data...

Documentation

Showing up to 5 results
|